Location: Asarope
(8.2500°N, 4.4833°E)
Time: 13:37:23
(UTC+00:00)

Hubble Space Telescope - Pass Details

Date: 09 August 2021
Orbit: 535 x 539 km, 28.5° (Epoch: 18 September)

Event Time Altitude Azimuth Distance (km) Brightness Sun altitude
Rises 19:28:49 0° 277° (W) 2,668 5.7 -21.7°
Reaches altitude 10° 19:31:29 10° 261° (W) 1,778 4.2 -22.3°
Maximum altitude 19:34:38 21° 211° (SSW) 1,220 2.6 -23.0°
Enters shadow 19:35:04 21° 201° (SSW) 1,233 2.6 -23.1°
